[[{"header":{"parameterUnit":"m.s-1","parameterCategory":1,"la1":30.2991,"la2":30.254,"lo1":-89.0895,"lo2":-89.0444,"dy":0.0017,"dx":0.0017,"nx":28,"ny":28,"refTime":"2024-08-06T21:00:00:Z","depth":0,"parameterNumber":2,"parameterNumberName":"U-component_of_WINDS"},"data":[0,0,0,0,0,0,0,0,0,0,0,0,0,0,0,0,0,0,0,0,0,0,0,0,0,0,0,0,0,0,0,0,0,0,0,0,0,0,0,0,0,0,0,0,0,0,0,0,0,0,0,0,0,0,0,0,0,0,3.1294,3.1294,0,3.1337,3.1338,3.1338,3.1251,3.1248,3.1245,3.1242,3.1291,3.1295,3.1299,0,0,0,0,0,0,0,0,0,0,0,0,0,3.1142,3.1145,3.1294,3.1294,3.1295,3.1337,3.1338,3.1338,3.1251,3.1248,3.1244,3.1241,3.129,3.1295,3.13,0,0,0,0,0,0,0,0,0,0,0,0,0,3.1199,3.1146,3.1293,3.1256,3.1253,3.1337,3.1338,3.1339,3.1252,3.1248,3.1243,3.1239,3.1289,3.1294,3.13,3.1424,0,0,3.1319,3.1321,0,0,0,0,0,0,0,0,3.1196,3.1205,3.1261,3.1259,3.1256,3.1284,3.1302,3.1367,3.1253,3.1253,3.1242,3.1237,3.1293,3.1298,3.1316,3.1426,3.1428,3.1319,3.1323,3.1325,3.1327,0,0,0,0,0,0,0,3.1192,3.1202,3.1311,3.1262,3.1259,3.124,3.1243,3.1314,3.1297,3.1252,3.1246,3.1252,3.1291,3.131,3.1316,3.1429,3.1319,3.1324,3.1328,3.133,3.1649,3.1654,0,0,0,0,0,0,3.1192,3.12,3.1309,3.1312,3.1214,3.1246,3.125,3.1279,3.1295,3.1294,3.1256,3.1248,3.1302,3.131,3.1318,3.1467,3.1325,3.1331,3.1334,3.1644,3.165,3.1655,0,0,0,0,0,0,3.1189,3.1203,3.1308,3.1254,3.1266,3.1253,3.1287,3.1283,3.1302,3.1298,3.1295,3.1279,3.1299,3.1309,3.1399,3.1468,3.1334,3.1339,3.1638,3.1646,3.1653,3.1765,0,0,0,0,0,0,3.1185,3.1202,3.1247,3.1256,3.1269,3.1386,3.1291,3.1286,3.1312,3.1302,3.1319,3.1318,3.1297,3.1391,3.1405,3.1473,3.1344,3.1632,3.1642,3.165,3.1755,3.1775,3.1792,0,0,0,0,0,3.118,3.1276,3.1249,3.1263,3.1325,3.139,3.1398,3.1371,3.1318,3.1365,3.1363,3.1317,3.1458,3.1401,3.1416,3.1487,3.1628,3.1639,3.165,3.1747,3.1771,3.1792,0,0,0,0,0,0,3.1275,3.1276,3.1247,3.1348,3.137,3.1375,3.1432,3.1397,3.1434,3.1424,3.139,3.1394,3.1492,3.1498,3.1435,3.1611,3.1534,3.1549,3.1603,3.1626,3.1644,3.1641,3.1349,0,0,0,0,0,3.1308,3.136,3.1358,3.1449,3.1461,3.1446,3.1473,3.145,3.1472,3.1481,3.1485,3.1509,3.1559,3.1593,3.1638,3.1756,3.1761,3.1813,3.1832,3.1847,3.186,3.1928,3.1952,3.1691,3.1691,3.1691,0,0,3.1377,3.1384,3.1418,3.1468,3.1482,3.1539,3.1453,3.1516,3.1559,3.149,3.1576,3.1581,3.1606,3.1711,3.1758,3.172,3.1934,3.1861,3.1873,3.1878,3.1942,3.1967,3.1989,3.1699,3.1697,3.1696,0,0,3.1531,3.154,3.1618,3.1634,3.1657,3.1647,3.1666,3.1678,3.1679,3.1764,3.1715,3.1767,3.1852,3.1874,3.1896,3.2064,3.2025,3.208,3.2178,3.2244,3.2265,3.2283,3.2347,3.237,3.2093,3.2094,3.2094,0,3.1613,3.1695,3.1663,3.173,3.1756,3.1697,3.1778,3.1796,3.1833,3.1853,3.181,3.1919,3.1932,3.2044,3.2085,3.2104,3.2128,3.2078,3.2264,3.2282,3.2299,3.2359,3.2383,3.21,3.21,3.2099,3.2098,0,3.1797,3.1855,3.1916,3.1954,3.1986,3.206,3.2042,3.2079,3.2056,3.2051,3.2142,3.2155,3.2205,3.223,3.2206,3.234,3.2316,3.2269,3.2192,3.2331,3.2387,3.241,3.211,3.2108,3.2106,3.2104,0,0,3.201,3.2032,3.2055,3.2074,3.2097,3.2142,3.2216,3.2264,3.2298,3.2327,3.239,3.2467,3.2425,3.245,3.2429,3.2487,3.2625,3.2433,3.2434,3.2471,3.2779,3.2816,3.2843,3.2599,3.2604,3.2607,3.2778,0,3.2165,3.229,3.2266,3.2389,3.2445,3.2393,3.2457,3.2481,3.248,3.2529,3.2529,3.2585,3.2523,3.2539,3.2594,3.2597,3.2687,3.2584,3.2661,3.2664,3.2658,3.2871,3.2909,3.3069,3.2799,3.2803,3.2806,0,3.2362,3.2399,3.2528,3.2547,3.2569,3.2628,3.2673,3.2719,3.2746,3.2742,3.2773,3.2743,3.282,3.2742,3.2851,3.2781,3.2812,3.2819,3.2825,3.2832,3.2744,3.2887,3.3119,3.3145,3.2839,3.2837,3.2834,0,3.2508,3.2591,3.268,3.2697,3.272,3.2763,3.2775,3.2798,3.283,3.287,3.2891,3.294,3.2968,3.3008,3.2993,3.2937,3.3107,3.3026,3.3108,3.3109,3.3147,3.3145,3.339,3.3164,3.3163,3.3163,3.3162,0,3.2685,3.2767,3.2746,3.2801,3.2893,3.2867,3.2959,3.2965,3.2987,3.3045,3.3003,3.3058,3.3035,3.3091,3.308,3.3174,3.3186,3.3187,3.3184,3.3192,3.3193,3.3213,3.3202,3.3169,3.3168,3.3167,3.3166,0,3.2863,3.2852,3.2947,3.2962,3.2968,3.3036,3.305,3.3104,3.3101,3.3176,3.3192,3.3188,3.3252,3.3242,3.3312,3.3305,3.3424,3.3405,3.3414,3.3411,3.3495,3.3489,3.3763,3.38,3.3548,3.355,3.3552,0,3.2977,3.3039,3.3063,3.3098,3.3114,3.3171,3.3204,3.3182,3.3219,3.3258,3.3308,3.3368,3.3414,3.3519,3.3525,3.358,3.3565,3.3657,3.3572,3.3581,3.357,3.3567,3.3575,3.3674,3.3677,3.3679,3.3681,0,3.3182,3.3175,3.3223,3.3273,3.3314,3.3351,3.3384,3.3417,3.3399,3.3443,3.3507,3.3544,3.3617,3.3679,3.3731,3.3746,3.3713,3.3708,3.3731,3.3741,3.3744,3.3747,3.3463,3.3702,3.37,3.3698,3.3697,3.3696,3.3334,3.3388,3.3414,3.3472,3.3495,3.3529,3.3581,3.3586,3.3639,3.3696,3.3681,3.3756,3.3787,3.3854,3.3875,3.3936,3.3902,3.3933,3.3942,3.3951,3.3962,3.3734,3.3945,3.3944,3.3944,3.3943,3.3943,0,3.3539,3.3554,3.3607,3.3656,3.3703,3.3666,3.3703,3.3745,3.3811,3.3842,3.3889,3.3967,3.4027,3.4039,3.4098,3.4145,3.4131,3.4161,3.4158,3.4163,3.3987,3.3963,3.4171,3.4171,3.4171,3.4171,3.4171,3.4171,3.3651,3.3743,3.374,3.3845,3.386,3.3932,3.3957,3.3989,3.4014,3.4102,3.4152,3.4159,3.4185,3.4246,3.4302,3.4304,3.4329,3.4366,3.4362,3.4198,3.4175,3.4153,3.4131,3.4371,3.4371,3.4534,3.4535,3.4536]},{"header":{"parameterUnit":"m.s-1","parameterCategory":1,"la1":30.2991,"la2":30.254,"lo1":-89.0895,"lo2":-89.0444,"dy":0.0017,"dx":0.0017,"nx":28,"ny":28,"refTime":"2024-08-06T21:00:00:Z","depth":0,"parameterNumber":3,"parameterNumberName":"V-component_of_WINDS"},"data":[0,0,0,0,0,0,0,0,0,0,0,0,0,0,0,0,0,0,0,0,0,0,0,0,0,0,0,0,0,0,0,0,0,0,0,0,0,0,0,0,0,0,0,0,0,0,0,0,0,0,0,0,0,0,0,0,0,0,-0.3924,-0.3921,0,-0.3622,-0.3619,-0.3615,-0.3585,-0.3588,-0.3591,-0.3594,-0.3271,-0.3259,-0.3248,0,0,0,0,0,0,0,0,0,0,0,0,0,-0.4461,-0.4451,-0.3924,-0.392,-0.3916,-0.3623,-0.3619,-0.3614,-0.3584,-0.3588,-0.3592,-0.3595,-0.3274,-0.3261,-0.3247,0,0,0,0,0,0,0,0,0,0,0,0,0,-0.42,-0.4448,-0.3925,-0.3866,-0.3858,-0.3624,-0.3618,-0.3613,-0.3583,-0.3588,-0.3593,-0.3597,-0.3279,-0.3262,-0.3245,-0.3044,0,0,-0.3192,-0.3185,0,0,0,0,0,0,0,0,-0.4215,-0.418,-0.3879,-0.387,-0.386,-0.3646,-0.3689,-0.3422,-0.3582,-0.3687,-0.3594,-0.3599,-0.3391,-0.3365,-0.3297,-0.3028,-0.3015,-0.3191,-0.318,-0.3173,-0.3168,0,0,0,0,0,0,0,-0.4233,-0.4193,-0.3804,-0.3874,-0.3863,-0.3851,-0.3819,-0.3638,-0.3515,-0.3678,-0.3675,-0.3641,-0.3387,-0.3314,-0.3289,-0.301,-0.3191,-0.3176,-0.3165,-0.3158,-0.2559,-0.2554,0,0,0,0,0,0,-0.4264,-0.4208,-0.3814,-0.3795,-0.4053,-0.3837,-0.3802,-0.371,-0.3518,-0.3493,-0.3637,-0.3641,-0.3341,-0.331,-0.3278,-0.3028,-0.3173,-0.3157,-0.3147,-0.2565,-0.2558,-0.2552,0,0,0,0,0,0,-0.4275,-0.4229,-0.3826,-0.4001,-0.3949,-0.3823,-0.372,-0.3701,-0.3629,-0.3487,-0.3463,-0.3586,-0.3344,-0.3302,-0.3103,-0.3016,-0.3149,-0.3133,-0.2571,-0.2563,-0.2555,-0.2527,0,0,0,0,0,0,-0.4291,-0.4233,-0.4158,-0.4,-0.394,-0.3659,-0.3715,-0.3692,-0.3601,-0.3602,-0.3433,-0.3409,-0.3344,-0.3129,-0.3086,-0.2995,-0.312,-0.2578,-0.2567,-0.2558,-0.2535,-0.2519,-0.2506,0,0,0,0,0,-0.431,-0.416,-0.4155,-0.4107,-0.3844,-0.3655,-0.362,-0.3552,-0.3594,-0.3515,-0.3424,-0.3414,-0.3034,-0.3109,-0.306,-0.2962,-0.2583,-0.257,-0.2558,-0.2542,-0.2522,-0.2506,0,0,0,0,0,0,-0.4305,-0.4138,-0.413,-0.3925,-0.3805,-0.365,-0.3549,-0.3534,-0.3395,-0.3402,-0.332,-0.3282,-0.3085,-0.3004,-0.3091,-0.2757,-0.2812,-0.2789,-0.2817,-0.2797,-0.2782,-0.2804,-0.3105,0,0,0,0,0,-0.4282,-0.4147,-0.4006,-0.3837,-0.3779,-0.3675,-0.3589,-0.3548,-0.3419,-0.3366,-0.326,-0.3131,-0.2982,-0.2886,-0.2741,-0.2525,-0.2486,-0.2434,-0.2419,-0.2408,-0.2387,-0.2265,-0.224,-0.2511,-0.2511,-0.2511,0,0,-0.4229,-0.412,-0.4039,-0.3834,-0.3736,-0.3594,-0.3631,-0.3479,-0.3371,-0.3341,-0.3147,-0.3066,-0.2916,-0.2707,-0.261,-0.2633,-0.2304,-0.2392,-0.2384,-0.2369,-0.225,-0.2224,-0.2201,-0.2503,-0.2504,-0.2506,0,0,-0.4059,-0.3966,-0.3815,-0.3718,-0.3571,-0.3504,-0.3468,-0.3315,-0.3261,-0.3067,-0.3042,-0.291,-0.2656,-0.255,-0.2463,-0.2257,-0.2241,-0.2212,-0.2131,-0.2013,-0.1992,-0.1973,-0.1896,-0.187,-0.2193,-0.2193,-0.2193,0,-0.401,-0.3799,-0.3738,-0.3587,-0.3496,-0.3469,-0.3313,-0.322,-0.3032,-0.2968,-0.2999,-0.268,-0.2577,-0.2343,-0.2293,-0.2225,-0.2178,-0.2229,-0.2001,-0.1981,-0.1962,-0.1887,-0.1859,-0.219,-0.219,-0.2191,-0.2191,0,-0.3745,-0.3599,-0.3494,-0.3319,-0.3217,-0.3064,-0.2976,-0.2879,-0.2847,-0.2775,-0.2576,-0.2453,-0.2283,-0.2225,-0.219,-0.1984,-0.2004,-0.2019,-0.2072,-0.1934,-0.1863,-0.1834,-0.2186,-0.2187,-0.2188,-0.2189,0,0,-0.3559,-0.3356,-0.3318,-0.3238,-0.3076,-0.2959,-0.2805,-0.2643,-0.256,-0.2432,-0.2297,-0.2085,-0.2099,-0.2,-0.1954,-0.1851,-0.1692,-0.1878,-0.1873,-0.1845,-0.1454,-0.1442,-0.141,-0.1684,-0.1678,-0.1673,-0.1466,0,-0.3369,-0.3098,-0.3039,-0.2803,-0.2666,-0.2639,-0.2504,-0.2388,-0.2317,-0.2187,-0.2107,-0.1956,-0.1988,-0.1928,-0.1825,-0.1734,-0.1612,-0.1748,-0.1552,-0.1546,-0.1587,-0.1373,-0.1358,-0.1169,-0.1438,-0.1433,-0.143,0,-0.311,-0.2981,-0.2733,-0.259,-0.253,-0.241,-0.2257,-0.2135,-0.2001,-0.1957,-0.1849,-0.1814,-0.1648,-0.1714,-0.1482,-0.1576,-0.1493,-0.1436,-0.1427,-0.1402,-0.1477,-0.1339,-0.1107,-0.1077,-0.1386,-0.139,-0.1393,0,-0.2996,-0.276,-0.2581,-0.2514,-0.2343,-0.2259,-0.2183,-0.2055,-0.1962,-0.1827,-0.1765,-0.1612,-0.1526,-0.1406,-0.133,-0.1385,-0.1103,-0.1163,-0.1057,-0.1059,-0.0995,-0.0999,-0.0742,-0.0948,-0.0949,-0.0949,-0.095,0,-0.2787,-0.2635,-0.2528,-0.2417,-0.2245,-0.2179,-0.2009,-0.1933,-0.182,-0.169,-0.1658,-0.1536,-0.1445,-0.131,-0.1249,-0.1064,-0.1027,-0.0983,-0.0967,-0.0983,-0.0988,-0.0924,-0.0934,-0.0942,-0.0943,-0.0945,-0.0946,0,-0.2628,-0.2551,-0.2354,-0.2211,-0.2171,-0.205,-0.1925,-0.1815,-0.1746,-0.1582,-0.154,-0.1429,-0.1268,-0.1182,-0.0979,-0.0939,-0.0731,-0.0725,-0.0777,-0.077,-0.0668,-0.0678,-0.0357,-0.031,-0.0552,-0.055,-0.0548,0,-0.2498,-0.2381,-0.2228,-0.2142,-0.2066,-0.1926,-0.1833,-0.1762,-0.1665,-0.1506,-0.1414,-0.1253,-0.112,-0.0864,-0.0762,-0.0607,-0.0594,-0.0493,-0.057,-0.0589,-0.0588,-0.0594,-0.0581,-0.0477,-0.0475,-0.0473,-0.0472,0,-0.2274,-0.2243,-0.2111,-0.1966,-0.1857,-0.1738,-0.162,-0.155,-0.146,-0.1352,-0.119,-0.1088,-0.0884,-0.0723,-0.056,-0.0477,-0.0457,-0.045,-0.0416,-0.0429,-0.0463,-0.044,-0.0736,-0.0456,-0.0457,-0.0459,-0.0459,-0.046,-0.2122,-0.2018,-0.1894,-0.1748,-0.1654,-0.1545,-0.1434,-0.1354,-0.1219,-0.1051,-0.1017,-0.0845,-0.0714,-0.0495,-0.0408,-0.0269,-0.0288,-0.0241,-0.0228,-0.0216,-0.0211,-0.049,-0.024,-0.024,-0.024,-0.0241,-0.0241,0,-0.1894,-0.1814,-0.1682,-0.1521,-0.1405,-0.1405,-0.1275,-0.1176,-0.1028,-0.091,-0.0782,-0.0595,-0.0439,-0.0327,-0.0168,-0.0078,-0.0065,-0.0038,-0.0042,-0.0022,-0.0204,-0.0247,-0.0052,-0.0052,-0.0052,-0.0052,-0.0052,-0.0052,-0.1761,-0.1583,-0.1537,-0.1311,-0.1231,-0.1066,-0.0992,-0.089,-0.0796,-0.0591,-0.0463,-0.0394,-0.0276,-0.0109,0.0035,0.0064,0.0124,0.015,0.0181,0.001,-0.001,-0.0029,-0.0069,0.0161,0.0161,0.0352,0.0353,0.0355]}]]